This demonstration page uses our WeatherBlox Daily Observations layout. Learn more.

Left ArrowRight Arrow

Hourly Observations for September 1, 2017

Temp ( °F °C ) Dew Point ( °F °C ) Humidity (%) Winds ( mph kmh ) Pressure ( in mb ) Visibility ( mi km ) Precip ( " mm )
12:51 am 00:51 Clear 72 22.2 40 4.4 31 31 SE 5 7 29.83 1010 10 16 N/A
1:51 am 01:51 Clear 69 20.6 41 5 36 36 SE 6 9 29.84 1011 10 16 N/A
2:51 am 02:51 Clear 68 20 43 6.1 40 40 ESE 7 11 29.84 1011 10 16 N/A
3:51 am 03:51 Clear 71 21.7 44 6.7 38 38 SSE 7 11 29.83 1010 10 16 N/A
4:51 am 04:51 Clear 69 20.6 45 7.2 42 42 SSE 9 15 29.85 1011 10 16 N/A
5:51 am 05:51 Clear 72 22.2 44 6.7 37 37 SE 12 19 29.85 1011 10 16 N/A
6:51 am 06:51 Sunny 75 23.9 43 6.1 32 32 SE 13 20 29.88 1012 10 16 N/A
7:51 am 07:51 Sunny 78 25.6 45 7.2 31 31 SE 13 20 29.88 1012 10 16 N/A
8:51 am 08:51 Sunny 82 27.8 43 6.1 25 25 SE 8 13 29.90 1013 10 16 N/A
9:51 am 09:51 Sunny 87 30.6 44 6.7 22 22 VRB 6 9 29.90 1012 10 16 N/A
10:51 am 10:51 Sunny 89 31.7 42 5.6 19 19 S 8 13 29.88 1012 10 16 N/A
11:51 am 11:51 Sunny 94 34.4 42 5.6 17 17 VRB 6 9 29.84 1011 10 16 N/A
12:51 pm 12:51 Sunny 95 35 41 5 15 15 S 7 11 29.83 1010 10 16 N/A
1:51 pm 13:51 Sunny 97 36.1 39 3.9 13 13 undefined N/A 29.79 1009 10 16 N/A
2:51 pm 14:51 Sunny 99 37.2 36 2.2 11 11 ESE 12 19 29.76 1008 10 16 N/A
3:51 pm 15:51 Sunny 99 37.2 35 1.7 11 11 SSE 15 24 29.74 1007 10 16 N/A
4:51 pm 16:51 Sunny 98 36.7 35 1.7 11 11 SSE 13 20 29.74 1007 10 16 N/A
5:51 pm 17:51 Sunny 95 35 35 1.7 12 12 S 8 13 29.74 1007 10 16 N/A
6:51 pm 18:51 Clear 91 32.8 33 0.6 13 13 SE 9 15 29.76 1008 10 16 N/A
7:51 pm 19:51 Clear 86 30 35 1.7 16 16 SE 7 11 29.79 1009 10 16 N/A
8:51 pm 20:51 Clear 81 27.2 35 1.7 19 19 ESE 5 7 29.81 1010 10 16 N/A
9:51 pm 21:51 Clear 79 26.1 35 1.7 20 20 E 9 15 29.83 1010 10 16 N/A
10:51 pm 22:51 Clear 77 25 35 1.7 22 22 ESE 8 13 29.84 1011 10 16 N/A
11:51 pm 23:51 Clear 75 23.9 35 1.7 23 23 S 6 9 29.84 1011 10 16 N/A

Powered by AerisWeather